Regional Weather Roundup
Issued by NWS

Home | Current Version | Previous Version | Text Only | Print | Product List | Glossary Off
Versions: 1 2 3 4 5 6 7 8 9 10 11 12 13 14 15 16 17 18 19 20 21 22 23 24 25 26 27 28 29 30 31 32 33 34 35 36 37 38 39 40 41 42 43 44 45 46 47 48 49 50

000
ASUS43 KIND 301709
RWRIN

WEATHER ROUNDUP FOR INDIANA
NATIONAL WEATHER SERVICE INDIANAPOLIS IN
100 PM EDT THU MAR 30 2017

NOTE: "FAIR" INDICATES FEW OR NO CLOUDS BELOW 12,000 FEET WITH NO
SIGNIFICANT WEATHER AND/OR OBSTRUCTIONS TO VISIBILITY.

* - STATION DOES NOT REPORT WEATHER SUCH AS PRECIPITATION OR FOG.

+ - STATION NOT QUALITY CONTROLLED BY THE NATIONAL WEATHER SERVICE.
    USE DATA WITH CAUTION...ESPECIALLY DEWPOINT AND RELATIVE
    HUMIDITY OBSERVATIONS.

INZ001>003-010>013-019-020-301800-
NORTHWEST INDIANA

CITY           SKY/WX    TMP DP  RH WIND       PRES   REMARKS
GARY /AIRPORT/ RAIN      45  43  93 E9G21     29.68F
KNOX *+        CLOUDY    43  32  65 E13       29.72F
LA PORTE +     LGT RAIN  42  41  95 E16       29.72F
MICHIGAN CITY+ LGT RAIN  43  43 100 E8        29.71F
MONTICELLO +   CLOUDY    46  43  88 E9G16     29.68F
RENSSELAER +   CLOUDY    45  45 100 E16G22    29.67F
VALPARAISO     LGT RAIN  45  43  93 E16       29.69F FOG

$$

LMZ046-743>745-301800-
SOUTHERN LAKE MICHIGAN

STATION/POSITION TIME  TEMP    WIND        PRES    WAVE
                       AIR SEA DIR/SP/G            HT
                 (UTC) (F)     (DEG/KT/KT) (MB)    (FT)
BURNS HARBOR     1640   44     110/ 18/ 29 1004.7F
MICHIGAN CITY    1640   44     100/ 16/ 19   N/A

$$

INZ004-005-014>016-021>024-301800-
NORTH CENTRAL INDIANA

CITY           SKY/WX    TMP DP  RH WIND       PRES   REMARKS
ELKHART        LGT RAIN  43  39  87 E17G23    29.74F
GOSHEN         CLOUDY    43  38  82 E16       29.74F
LOGANSPORT +   CLOUDY    46  43  87 E15       29.70F
PERU/GRISSOM   CLOUDY    48  48 100 E15       29.69F
ROCHESTER +    LGT RAIN  48  45  87 E16       29.72F
SOUTH BEND     LGT RAIN  42  32  67 SE15G25   29.75F
WARSAW +       CLOUDY    43  39  87 E18G24    29.73F

$$

INZ006>009-017-018-025>027-301800-
NORTHEAST INDIANA

CITY           SKY/WX    TMP DP  RH WIND       PRES   REMARKS
ANGOLA *+      CLOUDY    39  30  70 E15       29.80F
AUBURN +       CLOUDY    43  39  87 E16       29.79F
FORT WAYNE     CLOUDY    46  40  79 E23       29.75F
HUNTINGTON +   CLOUDY    46  42  86 E15G21    29.74F
KENDALLVILLE + CLOUDY    42  40  93 E13G21    29.78F

$$

INZ028-029-035-036-043>045-051>053-301800-
WEST CENTRAL INDIANA

CITY           SKY/WX    TMP DP  RH WIND       PRES   REMARKS
CRAWFORDSVL +  CLOUDY    60  56  88 E9        29.64F
GREENCASTLE +  CLOUDY    61  54  77 SE7       29.64F
LAFAYETTE      CLOUDY    51  48  89 E13       29.66F
TERRE HAUTE    CLOUDY    71  59  65 S12       29.61F

$$

INZ030>032-037>040-046>048-054>057-064-065-301800-
CENTRAL INDIANA

CITY           SKY/WX    TMP DP  RH WIND       PRES   REMARKS
ANDERSON       PTSUNNY   55  48  76 E12       29.71
CP ATTERBURY + RAIN      64  55  72 SE3       29.67F
COLUMBUS       CLOUDY    66  59  77 S17       29.67F
FISHERS *+     PTSUNNY   61  55  82 E7        29.68F
FRANKFORT +    CLOUDY    56  51  81 E18       29.69F
GREENWOOD *+   PTSUNNY   64  56  74 S8        29.68F
INDIANAPOLIS   CLOUDY    63  53  70 E8        29.66F
-EAGLE CREEK   CLOUDY    64  52  64 E8        29.66F
KOKOMO +       LGT RAIN  49  46  90 E15       29.72S
MARION +       CLOUDY    50  44  79 SE5G23    29.76R
MT COMFORT *+  CLOUDY    63  55  77 SE7       29.68F
SHELBYVILLE    CLOUDY    66  57  72 S7        29.67F
ZIONSVILLE +   PTSUNNY   59  51  75 E12       29.68F

$$

INZ033-034-041-042-049-050-058-059-301800-
EAST CENTRAL INDIANA

CITY           SKY/WX    TMP DP  RH WIND       PRES   REMARKS
MUNCIE         CLOUDY    55  47  74 E20       29.71F
RICHMOND +     CLOUDY    59  52  77 E6        29.72F

$$

INZ060-061-067>069-081>083-085>088-301800-
SOUTHWEST INDIANA

CITY           SKY/WX    TMP DP  RH WIND       PRES   REMARKS
EVANSVILLE     CLOUDY    73  54  51 SW23G30   29.63F
HUNTINGBURG *+ CLOUDY    74  60  61 S22G30    29.65F
WASHINGTON +   MOSUNNY   74  57  55 MISG      29.62F

$$

INZ062-063-066-070>080-084-089>092-301800-
SOUTH CENTRAL AND SOUTHEAST INDIANA

CITY           SKY/WX    TMP DP  RH WIND       PRES   REMARKS
BEDFORD +      CLOUDY    70  55  60 S8G22     29.65F
BLOOMINGTON    CLOUDY    67  57  70 SE7       29.64F
MADISON *+     MOSUNNY   72  55  56 S12G17    29.70F
NORTH VERNON + PTSUNNY   72  57  60 S13G20    29.68F
SEYMOUR +      TSTM      66  59  77 S8        29.68F

$$




USA.gov is the U.S. government's official web portal to all federal, state and local government web resources and services.